Location: CNYAC Observatory
(43.2150°N, 74.9500°W)
Time: 09:42:53
(UTC-04:00)

Cosmos 1975 Rocket - Visible Passes

Search period start: 25 March 2017 00:00
Search period end: 04 April 2017 00:00
Orbit: 603 x 635 km, 82.5° (Epoch: 23 March)

Date Brightness Start Highest point End Pass type
(mag) Time Alt. Az. Time Alt. Az. Time Alt. Az.
25 Mar 4.3 04:18:35 34° N 04:18:35 34° N 04:21:06 10° N visible
26 Mar 6.0 02:58:50 13° NE 02:58:50 13° NE 02:59:33 10° NE visible
26 Mar 4.5 04:36:00 27° NNW 04:36:00 27° NNW 04:38:17 10° N visible
27 Mar 5.6 03:16:14 18° NE 03:16:14 18° NE 03:17:40 10° NNE visible
27 Mar 4.9 04:53:24 18° NW 04:53:24 18° NW 04:55:09 10° NNW visible
28 Mar 5.2 03:33:37 23° NNE 03:33:37 23° NNE 03:35:21 10° NNE visible
28 Mar 5.3 05:10:46 11° NW 05:10:46 11° NW 05:11:20 10° NW visible
29 Mar 4.9 03:50:58 24° N 03:50:58 24° N 03:52:46 10° N visible
30 Mar 6.2 02:31:09 11° NE 02:31:09 11° NE 02:31:19 10° NE visible
30 Mar 5.0 04:08:18 20° NNW 04:08:18 20° NNW 04:09:56 10° N visible
31 Mar 5.9 02:48:28 15° NNE 02:48:28 15° NNE 02:49:23 10° NNE visible
31 Mar 5.2 04:25:38 15° NNW 04:25:38 15° NNW 04:26:46 10° NNW visible
01 Apr 5.5 03:05:46 19° NNE 03:05:46 19° NNE 03:07:03 10° NNE visible
02 Apr 5.3 03:23:04 20° N 03:23:04 20° N 03:24:26 10° N visible
03 Apr 5.3 03:40:21 17° NNW 03:40:21 17° NNW 03:41:35 10° N visible
